Wind_Speed
1 4 5 12 12 6 5 6 8 3 5 4 9 6 11 12 8 7 6 6 8 9 12 13 15 17 18 19 20 19 19 20 21 22 24 25 24 25 24 21 22 18 17 17
4 4 11 4 5 5 5 3 6 3 2 2 3 3 7 11 13 9 6 6 9 5 5 10 14 13 17 18 18 16 17 17 16 19 20 21 22 23 23 23 22 22 18 18
5 10 4 3 3 3 4 5 5 4 4 2 5 4 6 6 10 7 7 9 7 9 10 7 13 17 15 18 17 14 13 13 14 14 14 15 15 17 20 21 20 19 20 21
5 4 3 3 5 7 5 7 4 5 4 4 2 4 5 6 9 13 10 9 8 11 8 6 14 15 17 18 14 12 11 10 10 8 10 11 14 17 21 20 20 21 21 22
12 3 3 4 6 7 9 4 5 4 4 3 1 2 5 1 6 10 11 10 9 11 8 7 10 13 12 12 11 8 7 5 5 7 9 11 15 19 20 19 20 20 21 22
10 2 4 8 4 5 3 3 6 4 4 1 4 5 6 4 6 4 5 6 6 5 5 5 7 9 10 10 11 9 6 4 7 10 11 13 15 18 19 21 23 23 23 24
5 6 4 3 0 3 7 5 3 3 2 5 4 3 8 5 7 6 7 7 7 6 6 6 7 8 11 12 11 8 9 12 14 15 14 14 17 17 17 20 23 25 26 27
3 8 1 0 4 5 6 7 5 6 4 5 3 5 5 5 6 5 6 5 5 5 6 6 10 15 17 14 13 13 15 17 16 15 15 16 18 17 18 20 20 21 22 26
6 6 3 3 2 6 3 3 4 4 2 2 2 6 6 1 2 3 6 5 6 7 7 7 10 15 18 16 16 17 19 21 15 14 17 16 15 16 20 22 23 25 25 24
2 3 1 4 2 3 2 4 2 3 2 4 3 4 5 5 8 7 7 8 8 6 5 5 9 14 16 15 17 18 18 14 12 14 12 13 17 17 21 25 23 25 25 25
2 3 5 2 1 2 3 2 6 4 3 2 2 6 6 9 10 10 9 9 8 6 5 6 8 13 11 11 13 12 11 9 10 9 11 13 17 21 21 20 21 21 24 27
1 4 2 5 4 3 1 1 3 4 4 1 3 6 2 6 7 7 7 8 6 5 6 3 2 4 6 5 4 4 5 6 9 9 11 15 18 21 22 19 18 21 25 28
5 1 3 7 6 5 3 2 4 4 3 5 3 6 2 5 5 3 7 7 6 5 3 3 3 3 3 2 1 2 3 4 7 10 13 17 21 23 22 18 19 23 24 26
5 3 5 5 6 2 5 7 2 4 3 1 4 7 6 6 5 0 4 4 4 5 3 4 5 5 6 6 3 1 2 6 11 15 17 18 19 21 21 20 20 22 22 23
4 3 1 4 5 2 2 5 3 2 1 2 6 3 6 6 7 4 4 5 6 5 5 6 4 2 3 1 1 4 8 11 14 16 16 18 21 22 23 21 20 19 21 22
3 1 1 3 3 3 3 6 4 4 1 3 4 5 3 5 4 5 5 6 6 6 3 2 4 2 1 2 4 8 10 12 14 16 18 19 20 21 22 20 18 19 21 23
3 3 3 4 5 2 3 3 3 2 3 2 3 4 7 8 8 5 5 7 7 7 5 5 4 2 1 1 5 8 10 12 14 16 17 20 20 22 22 20 20 20 22 24
4 3 2 2 5 3 3 2 2 1 2 5 4 4 5 3 3 6 3 5 6 5 4 2 3 3 1 3 6 8 10 12 13 14 16 19 20 20 19 21 22 23 23 23
2 5 3 2 1 4 1 3 2 4 3 4 4 3 3 3 2 5 1 2 5 4 4 3 5 5 3 5 7 8 11 13 13 14 17 19 19 19 20 21 24 24 22 22
5 6 4 2 2 2 2 3 2 2 4 4 5 5 4 2 4 4 3 3 3 3 3 5 7 4 5 8 9 10 12 13 15 17 18 20 20 19 20 21 23 22 19 18
3 3 3 2 0 4 3 6 1 4 5 3 1 3 3 2 5 3 4 2 3 3 4 6 7 7 9 9 10 12 14 17 16 16 18 21 21 18 19 21 21 21 17 16
3 3 1 3 1 1 4 2 3 4 1 1 1 2 3 1 2 1 3 3 3 4 6 9 10 12 13 12 11 15 18 19 16 16 18 20 22 18 18 19 22 20 14 14
1 4 3 4 4 3 3 2 1 3 4 3 2 2 3 3 2 3 4 5 7 9 11 12 14 15 18 16 15 18 19 19 18 17 17 19 23 17 16 18 22 20 12 10
3 2 3 2 2 3 2 1 2 2 2 3 2 5 5 3 5 7 6 6 9 11 15 18 16 18 22 20 16 18 19 20 20 16 15 16 19 17 17 17 19 15 11 12
2 3 1 1 3 3 2 2 2 2 5 5 4 5 5 6 7 7 6 9 14 17 18 18 20 22 25 25 21 21 21 18 16 11 11 13 16 15 15 14 14 15 12 8
1 3 3 3 4 3 6 3 4 6 5 7 6 4 9 11 8 8 8 16 15 17 20 16 19 23 26 26 24 22 20 17 14 10 9 9 12 14 13 11 14 11 13 12
Wind_Direction
218 98 216 223 201 235 205 205 220 197 190 138 213 229 190 199 212 223 233 203 220 219 241 234 237 236 240 241 240 244 258 267 268 276 290 295 292 300 307 306 298 289 288 284
35 248 243 218 219 192 202 221 241 214 63 162 108 298 219 209 222 222 228 237 238 242 250 251 247 239 238 241 243 250 259 274 280 282 285 287 292 299 303 305 301 297 292 284
166 246 81 311 307 209 231 200 235 219 113 119 135 279 211 213 216 225 244 230 231 223 233 229 235 234 237 242 240 249 263 272 279 284 286 294 300 304 302 311 309 296 301 293
232 311 225 283 251 160 253 210 219 133 118 238 13 267 243 209 207 222 228 233 222 223 229 214 220 226 228 236 240 245 249 259 279 294 303 307 305 302 311 314 316 313 312 308
258 271 258 251 241 166 233 205 207 141 131 92 241 87 262 37 248 229 223 227 232 228 206 233 223 228 225 221 223 224 222 238 263 293 300 303 305 306 310 310 313 316 320 317
250 190 204 224 263 176 90 70 46 61 101 200 204 155 280 206 222 214 214 224 229 204 185 157 150 156 169 179 183 194 206 245 264 266 268 276 287 297 303 307 310 317 318 320
325 279 255 187 102 51 69 58 315 327 345 239 165 129 246 252 246 240 194 203 201 175 161 147 146 157 172 183 194 209 225 233 237 244 252 266 277 285 291 299 306 313 316 319
203 319 286 211 189 204 187 160 168 236 233 273 181 235 259 239 270 233 192 177 169 173 179 179 186 191 186 202 210 220 230 239 242 248 259 270 277 278 285 294 300 305 310 316
181 262 263 197 209 150 193 188 172 129 35 68 252 294 298 279 294 199 177 168 199 206 191 190 203 202 205 200 220 230 235 243 250 263 274 273 277 288 298 301 300 307 309 312
304 318 277 309 58 6 179 158 14 11 288 289 305 284 248 249 239 217 205 204 210 202 196 214 207 208 218 222 235 242 251 262 266 273 273 284 290 290 299 298 295 306 310 313
108 108 295 353 328 242 5 8 55 115 133 199 292 264 218 225 218 209 212 203 201 201 217 223 223 226 239 247 256 264 264 271 281 287 290 299 301 299 301 303 302 309 314 316
103 142 249 254 325 305 8 0 141 120 261 127 159 272 322 286 280 240 195 190 190 204 200 216 265 259 244 253 251 257 282 300 309 311 311 309 310 312 307 306 314 319 317 316
187 83 15 351 354 -0 28 321 110 109 85 203 149 270 336 319 314 261 176 166 176 179 148 25 26 359 306 289 306 318 295 325 325 327 324 322 322 320 312 304 318 323 319 317
98 97 141 197 228 205 306 307 172 141 132 200 237 308 326 302 287 338 70 106 90 60 86 77 59 69 113 104 118 228 302 338 332 331 327 325 325 325 325 313 311 319 318 317
97 130 164 248 250 229 21 316 74 95 108 104 290 287 309 313 248 191 141 85 94 100 110 117 128 165 91 111 1 347 342 336 330 326 325 322 322 321 320 318 320 318 323 323
353 151 117 332 27 313 88 13 47 51 48 292 308 298 8 338 59 87 102 114 99 82 81 139 130 171 106 37 359 338 328 324 321 320 321 323 324 324 326 324 324 324 325 328
69 94 56 275 335 34 30 338 344 311 35 322 346 321 337 23 35 49 95 112 139 146 151 188 183 185 137 326 328 321 321 316 318 323 328 329 327 324 328 329 326 328 328 330
117 100 88 270 358 18 255 195 251 319 59 14 46 26 44 81 72 57 71 131 139 149 182 206 195 168 211 300 303 304 309 313 321 329 332 332 334 332 330 332 331 326 329 332
69 118 103 112 148 296 357 1 14 55 331 19 106 97 113 139 61 22 36 136 175 181 193 216 187 188 240 279 292 297 303 312 314 316 323 328 328 328 332 330 327 326 325 331
57 67 110 93 79 250 264 340 203 105 341 9 112 175 199 344 22 265 217 159 159 170 186 182 178 200 252 282 277 283 301 309 314 314 317 324 323 319 326 328 326 327 327 333
38 16 103 96 185 297 274 309 171 56 251 351 66 165 179 232 206 254 151 184 192 208 239 203 202 234 262 276 278 285 303 302 314 319 320 325 326 322 335 331 332 332 331 336
154 127 134 84 55 332 2 334 54 213 195 190 167 204 200 159 64 118 221 243 214 244 233 215 227 249 268 275 279 284 289 301 310 314 319 322 329 322 332 340 336 334 334 344
60 164 176 155 213 253 298 327 40 169 172 205 192 65 93 121 223 239 265 248 239 247 248 238 243 261 275 282 276 277 299 301 302 308 317 323 331 333 340 342 341 340 349 5
14 110 95 90 315 311 321 22 43 211 127 112 122 163 174 188 225 245 255 253 250 256 251 245 253 259 271 283 285 282 296 300 298 305 318 324 333 338 347 342 350 359 10 23
219 35 127 350 331 340 40 350 194 129 111 128 167 178 195 202 234 234 251 250 250 254 261 258 258 260 271 284 290 298 299 302 303 302 328 336 343 349 346 353 0 8 10 359
339 167 116 207 231 173 259 233 192 150 170 186 172 203 229 216 237 239 250 256 261 263 266 270 271 268 273 286 299 302 302 310 301 293 325 327 333 336 342 348 349 357 358 349
Height
794 813 823 810 810 802 806 817 812 805 802 813 819 817 814 816 821 823 823 825 821 821 819 823 824 827 830 832 833 834 835 835 836 837 837 836 835 835 833 833 833 831 830 829
807 817 793 790 794 801 805 811 812 803 803 811 817 820 815 814 817 818 821 823 820 819 818 819 821 823 825 827 829 830 831 832 833 834 834 833 832 830 829 829 829 829 827 825
808 794 784 787 792 801 803 810 805 805 812 816 819 823 817 811 813 816 815 815 816 816 816 815 818 819 821 824 825 827 828 829 830 830 829 828 828 826 826 825 825 825 823 822
799 782 783 789 797 798 812 789 790 807 815 831 818 843 821 815 813 810 810 810 810 810 810 811 813 814 817 819 823 824 825 826 826 825 825 825 824 824 823 823 821 819 819 817
796 786 788 793 788 786 796 779 789 799 819 827 832 840 819 819 819 811 806 805 806 803 806 809 810 810 814 817 819 821 822 823 823 823 823 823 822 821 820 819 817 816 815 813
786 775 778 780 770 774 777 787 803 817 831 846 828 835 829 825 810 802 802 802 800 800 802 806 807 809 812 815 818 819 819 820 820 820 820 820 820 819 818 816 814 812 810 808
792 783 771 764 777 778 790 811 835 836 838 841 829 839 818 805 801 799 800 802 802 803 805 806 807 810 813 816 818 819 818 818 817 817 817 818 818 817 815 814 811 809 806 804
812 817 776 763 774 787 793 807 839 844 847 829 824 832 808 799 796 795 796 799 802 804 804 805 807 809 810 815 816 816 816 815 814 815 816 816 815 815 813 811 808 805 803 801
814 805 768 765 764 775 793 806 796 823 831 841 832 818 799 796 796 797 799 801 804 804 804 804 807 809 810 811 812 813 813 811 812 814 815 814 814 813 812 809 807 804 801 797
788 807 778 771 767 774 780 785 810 825 834 838 835 831 822 805 802 799 800 802 803 803 804 806 806 807 810 809 810 812 811 811 811 812 813 812 811 810 807 805 803 800 796 792
783 800 795 781 786 789 793 799 815 819 829 837 846 836 800 796 790 794 795 798 800 802 803 804 803 806 809 810 810 811 811 810 810 810 810 810 810 808 804 801 798 796 791 787
787 803 811 796 783 782 781 789 804 827 824 834 842 832 788 794 794 792 792 795 797 799 801 803 807 808 810 810 810 810 810 810 810 810 808 807 806 803 800 797 794 791 787 783
787 807 824 813 802 788 794 791 805 815 821 828 832 825 792 793 793 791 794 795 797 800 804 807 808 808 809 810 810 810 810 809 810 809 807 804 801 799 796 793 791 788 784 779
782 804 812 827 815 806 805 795 794 807 826 820 821 814 793 794 795 795 797 798 801 804 807 810 812 812 812 810 810 810 809 809 809 807 805 802 800 797 794 790 787 785 781 776
790 805 802 801 802 798 803 804 798 800 807 814 811 812 799 795 794 795 796 801 805 808 810 811 813 815 812 811 811 811 810 809 808 806 804 802 799 795 791 787 784 781 777 773
793 808 803 803 796 799 808 806 801 802 802 803 805 806 800 797 794 796 800 804 810 814 817 813 812 813 812 812 812 812 810 810 808 806 803 800 796 793 789 784 781 778 774 770
799 809 817 817 806 803 817 811 808 803 803 808 814 808 806 807 806 806 808 809 810 809 813 814 814 813 814 814 814 813 812 810 808 805 802 798 795 791 786 782 779 775 771 767
804 812 821 822 815 832 809 802 804 805 807 807 809 813 814 814 814 812 809 809 812 813 814 813 814 815 816 816 815 814 812 810 807 804 801 798 794 789 785 781 777 773 769 765
796 811 824 828 835 818 806 803 805 808 810 809 814 815 816 814 813 815 812 811 812 813 813 814 815 816 817 816 815 813 811 809 806 803 800 797 794 790 785 781 776 771 767 763
801 808 817 829 825 833 813 801 797 801 824 809 812 815 816 814 823 820 811 811 812 812 813 814 815 816 816 814 813 811 810 807 804 802 799 796 792 789 785 780 775 770 766 761
816 820 822 837 827 822 806 801 797 824 830 809 808 811 812 815 816 811 810 811 812 812 813 813 814 814 813 812 811 810 808 805 802 800 798 794 791 787 783 778 773 768 764 761
812 821 825 832 830 825 805 802 810 814 810 809 809 809 809 811 813 812 812 811 812 812 812 812 813 812 811 810 809 807 805 802 800 798 795 792 789 785 781 777 771 767 763 760
816 814 821 821 825 812 808 807 806 808 808 808 808 811 813 813 813 813 812 812 811 811 811 811 811 811 808 807 806 804 800 799 796 794 793 791 787 783 779 776 771 765 762 761
807 806 816 816 811 808 806 805 805 805 805 807 809 810 811 811 812 811 810 810 810 809 809 808 809 808 805 803 802 800 798 795 792 792 791 789 785 781 778 775 771 766 763 761
812 810 816 818 811 807 806 807 807 807 806 807 808 809 809 810 809 809 808 807 807 807 806 806 805 804 802 799 798 796 794 792 789 789 789 787 784 781 778 775 772 768 765 763
814 813 820 823 812 813 811 806 807 806 806 806 807 808 807 807 806 806 805 803 804 803 802 803 802 800 797 796 794 792 790 788 787 787 787 785 783 780 778 775 772 770 766 763